Overview Statistics Trail Chart Weather Telemetry Raw packets
 

This is the latest recevied weather packets stored in our database for station/object KO4LCK. If no packets are shown the sender has not sent any weather packets the latest 10 day(s).

<< 26 27 28 29 30 31 32 >>
Time Temp. Humidity Pressure Rain* Wind** Luminosity Snow
1788470926 37.22° C 42% 1015.4 hPa 0 mm - 335 W/m² -
1788470622 36.67° C 43% 1015.5 hPa 0 mm - 295 W/m² -
1788470321 36.67° C 42% 1015.8 hPa 0 mm - 305 W/m² -
1788470018 37.22° C 42% 1015.6 hPa 0 mm - 367 W/m² -
1788469714 37.78° C 41% 1015.5 hPa 0 mm - 132 W/m² -
1788469408 37.78° C 41% 1015.7 hPa 0 mm - 394 W/m² -
1788469108 37.78° C 40% 1015.8 hPa 0 mm - 417 W/m² -
1788468807 37.78° C 40% 1015.7 hPa 0 mm - 441 W/m² -
1788468503 37.78° C 41% 1015.9 hPa 0 mm - 441 W/m² -
1788468199 37.22° C 41% 1016.1 hPa 0 mm - 457 W/m² -
1788467894 36.67° C 42% 1016 hPa 0 mm - 473 W/m² -
1788467590 36.67° C 42% 1016.3 hPa 0 mm - 484 W/m² -
1788467288 37.78° C 42% 1016.1 hPa 0 mm - 502 W/m² -
1788466985 37.22° C 43% 1016.3 hPa 0 mm - 520 W/m² -
1788466684 36.11° C 45% 1016.4 hPa 0 mm - 517 W/m² -
1788466385 36.67° C 45% 1016.5 hPa 0 mm - 540 W/m² -
1788466083 36.67° C 44% 1016.5 hPa 0 mm - 543 W/m² -
1788465779 36.67° C 45% 1016.7 hPa 0 mm - 553 W/m² -
1788465474 36.67° C 46% 1016.8 hPa 0 mm - 538 W/m² -
1788465171 36.11° C 45% 1016.9 hPa 0 mm - 559 W/m² -
1788464871 35.56° C 46% 1017 hPa 0 mm - 589 W/m² -
1788464562 36.11° C 45% 1017 hPa 0 mm - 604 W/m² -
1788464257 35.56° C 47% 1017.1 hPa 0 mm - 620 W/m² -
1788463952 35° C 51% 1017.3 hPa 0 mm - 648 W/m² -
1788463648 34.44° C 51% 1017.1 hPa 0 mm - 404 W/m² -

* Rain latest hour (hover to see other rain measurements)
** Current wind speed in m/s (hover to see current wind gust speed)